Cosmos 1441 Rocket - Orbit

View from above orbital plane
View from above orbital plane
View from above satellite
View from above satellite

Ground track
Ground track

The orbit data is extracted from the following two-line orbital elements,

1 13819U 83010B   13168.49476262  .00001631  00000-0  10174-3 0  5974
2 13819 081.1048 058.3527 0034886 124.8490 235.6024 15.08468746652939
Epoch (UTC): 17 June 2013 11:52:27
Eccentricity: 0.0034886
inclination: 81.1048°
perigee height: 517 km
apogee height: 565 km
right ascension of ascending node: 58.3527°
argument of perigee: 124.8490°
revolutions per day: 15.08468746
mean anomaly at epoch: 235.6024°
orbit number at epoch: 65293

The dashed part of the orbit path shows where the satellite is in the earth's shadow,  

Developed and maintained by Chris Peat, Heavens-Above GmbH. Please read the updated FAQ before sending e-mail. Imprint. DLR